Location: Banska Bystrica
(0.0000°N, 19.1500°E)
Time: 05:13:58
(UTC+01:00)

Ariane H10-3 - Pass Details

Date: 19 February 2019
Orbit: 311 x 28806 km, 6.8° (Epoch: 20 March)

Event Time Altitude Azimuth Distance (km) Brightness Sun altitude
Rises 19:29:25 0° 252° (WSW) 2,347 6.5 -22.6°
Reaches altitude 10° 19:30:42 10° 247° (WSW) 1,745 5.4 -22.9°
Maximum altitude 19:34:02 58° 166° (SSE) 1,071 3.1 -23.7°
Enters shadow 19:36:47 37° 106° (ESE) 2,022 4.2 -24.4°
